User: anonymous   Login
Location: Key Biscayne
(25.6930°N, 80.1630°W)
Time: 07:33:02
(UTC-05:00)
Language:

Envisat - Orbit

View from above orbital plane
View from above orbital plane
View from above satellite
View from above satellite

Ground track
Ground track

The orbit data is extracted from the following two-line orbital elements,

1 27386U 02009A   17323.14595001 -.00000009  00000-0  10850-4 0  9996
2 27386  98.2129   1.8038 0001422  85.7086 274.4278 14.37908448823344
Epoch (UTC): 19 November 2017 03:30:10
Eccentricity: 0.0001422
inclination: 98.2129°
perigee height: 764 km
apogee height: 766 km
right ascension of ascending node: 1.8038°
argument of perigee: 85.7086°
revolutions per day: 14.37908448
mean anomaly at epoch: 274.4278°
orbit number at epoch: 82334

The dashed part of the orbit path shows where the satellite is in the earth's shadow,  

DLR